TimeCDT,TemperatureF,Dew PointF,Humidity,Sea Level PressureIn,VisibilityMPH,Wind Direction,Wind SpeedMPH,Gust SpeedMPH,PrecipitationIn,Events,Conditions,WindDirDegrees,DateUTC
12:54 AM,28.0,19.9,72,30.38,10.0,WNW,11.5,-,N/A,,Clear,290,2012-10-05 05:54:00
1:54 AM,28.0,19.9,72,30.38,10.0,WNW,12.7,-,N/A,,Clear,290,2012-10-05 06:54:00
2:54 AM,26.1,19.9,78,30.38,10.0,West,12.7,-,N/A,,Clear,280,2012-10-05 07:54:00
3:54 AM,25.0,19.9,81,30.38,10.0,WNW,12.7,-,N/A,,Clear,290,2012-10-05 08:54:00
4:54 AM,24.1,19.0,81,30.39,10.0,West,13.8,-,N/A,,Clear,280,2012-10-05 09:54:00
5:54 AM,24.1,19.0,81,30.39,10.0,WNW,12.7,-,N/A,,Clear,290,2012-10-05 10:54:00
6:29 AM,24.8,19.4,80,30.33,10.0,WNW,12.7,-,N/A,,Mostly Cloudy,300,2012-10-05 11:29:00
6:54 AM,26.1,18.0,71,30.40,10.0,NW,13.8,20.7,N/A,,Overcast,310,2012-10-05 11:54:00
7:54 AM,26.1,18.0,71,30.41,10.0,NW,18.4,23.0,N/A,,Overcast,310,2012-10-05 12:54:00
8:54 AM,27.0,18.0,69,30.42,10.0,WNW,16.1,-,N/A,,Overcast,300,2012-10-05 13:54:00
9:54 AM,28.9,18.0,64,30.43,10.0,WNW,20.7,-,N/A,,Overcast,300,2012-10-05 14:54:00
10:54 AM,30.9,19.0,61,30.43,10.0,WNW,17.3,24.2,N/A,,Overcast,300,2012-10-05 15:54:00
11:54 AM,32.0,19.4,60,30.36,10.0,NW,15.0,23.0,N/A,,Overcast,310,2012-10-05 16:54:00
12:43 PM,33.8,19.4,56,30.36,10.0,WNW,13.8,-,N/A,,Overcast,300,2012-10-05 17:43:00
12:54 PM,34.0,19.0,54,30.43,10.0,NW,11.5,25.3,N/A,,Overcast,320,2012-10-05 17:54:00
1:54 PM,36.0,19.9,52,30.42,10.0,NW,11.5,20.7,N/A,,Mostly Cloudy,320,2012-10-05 18:54:00
2:54 PM,39.9,19.9,45,30.40,10.0,NW,13.8,25.3,N/A,,Scattered Clouds,320,2012-10-05 19:54:00
3:54 PM,39.0,19.9,46,30.40,10.0,NNW,15.0,-,N/A,,Overcast,330,2012-10-05 20:54:00
4:54 PM,39.0,21.0,49,30.40,10.0,NNW,13.8,25.3,N/A,,Scattered Clouds,340,2012-10-05 21:54:00
5:54 PM,37.0,21.0,52,30.42,10.0,NNW,16.1,-,N/A,,Overcast,330,2012-10-05 22:54:00
6:54 PM,33.1,24.1,70,30.45,10.0,NNW,12.7,-,N/A,,Overcast,330,2012-10-05 23:54:00
7:54 PM,32.0,27.0,82,30.46,7.0,WNW,8.1,-,0.00,,Overcast,300,2012-10-06 00:54:00
8:54 PM,33.1,27.0,78,30.45,10.0,West,8.1,-,N/A,,Overcast,260,2012-10-06 01:54:00
9:54 PM,33.1,26.1,75,30.45,10.0,West,10.4,-,N/A,,Overcast,280,2012-10-06 02:54:00
10:54 PM,34.0,21.9,61,30.45,10.0,NW,10.4,-,N/A,,Overcast,310,2012-10-06 03:54:00
11:54 PM,34.0,23.0,64,30.45,10.0,West,8.1,-,N/A,,Mostly Cloudy,280,2012-10-06 04:54:00